Date String (YYYY-MM-DD hh:mm:ss) UTC,Instrument flags,Ambient pressure (hPa),Sample flow (lpm),Bypass flow (lpm),Sample temperature (°C),Ambient temperature (°C),ASC tube jacket temperature (°C),LED temperature (°C),Box temperature (°C),Sample RH (%),Span deviation,Mass concentration (μg/m³),Mass concentration (μg/m³),Mass concentration (μg/m³)
DateTimeUTC,F1_M11,P_M11,Q1_M11,Q2_M11,T1_M11,T2_M11,T3_M11,T4_M11,T5_M11,U1_M11,ZSPAN_M11,X0_M11,X2_M11,X1_M11
2022-11-13 12:00:00,,0820.6,5.01,0.00,22.4,20.8,00.0,31.3,24.2,08.9,0000.2,0018.57,0009.81,0008.72
2022-11-13 12:01:00,,0820.6,5.01,0.00,22.4,20.9,00.0,31.3,24.2,08.9,0000.9,0019.55,0009.84,0008.71
2022-11-13 12:02:00,,0820.6,5.00,0.00,22.4,20.8,00.0,31.3,24.2,08.8,0000.6,0019.88,0009.84,0008.69
2022-11-13 12:03:00,,0820.6,5.00,0.00,22.3,20.8,00.0,31.3,24.1,08.9,-000.4,0019.57,0009.79,0008.68
2022-11-13 12:04:00,,0820.6,5.00,0.00,22.3,21.1,00.0,31.2,24.2,08.9,0000.7,0020.03,0009.76,0008.68
2022-11-13 12:05:00,,0820.6,5.01,0.00,22.4,22.0,00.0,31.2,24.4,08.8,-001.8,0020.18,0009.68,0008.64
2022-11-13 12:06:00,,0820.6,4.98,0.00,22.5,22.4,00.0,31.2,24.6,08.8,-002.3,0020.31,0009.66,0008.61
2022-11-13 12:07:00,,0820.6,5.02,0.00,22.6,22.2,00.0,31.3,24.5,08.9,-001.3,0019.94,0009.69,0008.58
2022-11-13 12:08:00,,0820.6,4.98,0.00,22.6,21.9,00.0,31.3,24.5,08.9,-001.3,0019.79,0009.62,0008.54
2022-11-13 12:09:00,,0820.6,4.99,0.00,22.6,21.7,00.0,31.3,24.5,08.9,-000.7,0019.45,0009.65,0008.55
2022-11-13 12:10:00,,0820.7,5.01,0.00,22.6,21.5,00.0,31.3,24.4,09.0,-000.9,0018.89,0009.65,0008.59
2022-11-13 12:11:00,,0820.6,5.01,0.00,22.5,21.4,00.0,31.3,24.4,08.9,-001.1,0019.16,0009.64,0008.61
2022-11-13 12:12:00,,0820.5,5.01,0.00,22.5,21.2,00.0,31.3,24.3,08.7,-001.6,0018.72,0009.60,0008.58
2022-11-13 12:13:00,,0820.6,4.99,0.00,22.5,21.1,00.0,31.3,24.3,08.7,-001.9,0018.88,0009.55,0008.53
2022-11-13 12:14:00,,0820.6,4.99,0.00,22.5,21.0,00.0,31.3,24.3,08.8,-001.4,0019.57,0009.59,0008.54
2022-11-13 12:15:00,,0820.6,5.02,0.00,22.4,20.9,00.0,31.3,24.3,08.9,-000.7,0019.22,0009.64,0008.56
2022-11-13 12:16:00,,0820.6,5.00,0.00,22.4,20.9,00.0,31.3,24.2,09.0,0000.5,0018.87,0009.71,0008.60
2022-11-13 12:17:00,,0820.5,4.99,0.00,22.4,20.7,00.0,31.3,24.2,08.9,0001.0,0018.43,0009.72,0008.61
2022-11-13 12:18:00,,0820.5,5.00,0.00,22.3,20.5,00.0,31.3,24.1,08.9,0000.3,0019.03,0009.67,0008.59
2022-11-13 12:19:00,,0820.5,5.00,0.00,22.3,20.5,00.0,31.3,24.1,08.9,0000.2,0019.18,0009.72,0008.59
2022-11-13 12:20:00,,0820.5,4.98,0.00,22.3,20.4,00.0,31.2,24.0,08.9,0000.2,0019.13,0009.69,0008.57
2022-11-13 12:21:00,,0820.4,5.01,0.00,22.2,20.5,00.0,31.2,24.0,09.0,-000.3,0019.50,0009.67,0008.53
2022-11-13 12:22:00,,0820.4,5.00,0.00,22.3,21.1,00.0,31.2,24.1,09.0,-000.1,0019.23,0009.65,0008.51
2022-11-13 12:23:00,,0820.4,4.99,0.00,22.4,22.1,00.0,31.1,24.4,08.9,0000.0,0018.85,0009.62,0008.47
2022-11-13 12:24:00,,0820.5,5.01,0.00,22.4,22.1,00.0,31.2,24.4,08.9,0000.5,0019.15,0009.69,0008.52
2022-11-13 12:25:00,,0820.5,5.01,0.00,22.4,21.7,00.0,31.2,24.4,08.9,0001.0,0018.71,0009.76,0008.58
2022-11-13 12:26:00,,0820.4,4.99,0.00,22.4,21.2,00.0,31.2,24.2,08.9,0000.8,0018.79,0009.77,0008.59
2022-11-13 12:27:00,,0820.4,4.99,0.00,22.3,20.8,00.0,31.2,24.1,08.9,-000.9,0019.26,0009.74,0008.60
2022-11-13 12:28:00,,0820.4,5.00,0.00,22.3,20.6,00.0,31.2,24.0,09.0,-000.9,0019.40,0009.76,0008.64
2022-11-13 12:29:00,,0820.3,5.01,0.00,22.2,20.4,00.0,31.2,24.0,09.0,-000.8,0019.27,0009.82,0008.67
2022-11-13 12:30:00,,0820.4,5.00,0.00,22.2,20.4,00.0,31.2,24.0,09.0,-000.5,0019.11,0009.83,0008.69
2022-11-13 12:31:00,,0820.4,5.00,0.00,22.2,20.4,00.0,31.1,24.0,09.1,-000.7,0020.02,0009.83,0008.72
2022-11-13 12:32:00,,0820.4,5.00,0.00,22.2,20.5,00.0,31.1,24.0,09.1,-001.2,0020.39,0009.87,0008.79
2022-11-13 12:33:00,,0820.4,4.99,0.00,22.2,20.6,00.0,31.1,24.0,09.1,-000.5,0020.46,0009.86,0008.82
2022-11-13 12:34:00,,0820.5,4.99,0.00,22.2,20.6,00.0,31.1,24.0,09.1,-000.8,0021.15,0009.90,0008.86
2022-11-13 12:35:00,,0820.5,5.00,0.00,22.2,20.6,00.0,31.1,24.0,09.1,-001.2,0020.86,0009.92,0008.90
2022-11-13 12:36:00,,0820.4,5.00,0.00,22.1,20.5,00.0,31.1,23.9,09.1,-001.9,0020.23,0009.85,0008.90
2022-11-13 12:37:00,,0820.4,5.01,0.00,22.1,20.3,00.0,31.1,23.9,09.1,-001.7,0020.00,0009.79,0008.89
2022-11-13 12:38:00,,0820.4,5.01,0.00,22.1,20.3,00.0,31.0,23.9,09.2,-000.6,0019.92,0009.83,0008.92
2022-11-13 12:39:00,,0820.5,5.00,0.00,22.1,20.8,00.0,31.0,24.0,09.2,-000.1,0020.20,0009.88,0008.92
2022-11-13 12:40:00,,0820.5,5.00,0.00,22.2,21.8,00.0,31.0,24.2,09.1,-000.2,0020.94,0009.88,0008.94
2022-11-13 12:41:00,,0820.6,4.99,0.00,22.3,22.0,00.0,31.0,24.3,09.1,-000.5,0021.07,0009.91,0008.98
2022-11-13 12:42:00,,0820.6,4.99,0.00,22.3,21.8,00.0,31.0,24.3,09.0,0000.4,0020.22,0009.94,0008.98
2022-11-13 12:43:00,,0820.4,5.01,0.00,22.3,21.5,00.0,31.1,24.2,09.0,0000.8,0019.56,0009.91,0008.95
2022-11-13 12:44:00,,0820.5,5.00,0.00,22.3,21.4,00.0,31.1,24.2,09.0,0001.1,0019.52,0009.93,0008.94
2022-11-13 12:45:00,,0820.6,5.00,0.00,22.3,21.3,00.0,31.1,24.2,09.0,0001.3,0018.81,0009.93,0008.96
2022-11-13 12:46:00,,0820.6,4.99,0.00,22.3,21.3,00.0,31.1,24.2,09.0,0001.2,0018.99,0009.95,0008.99
2022-11-13 12:47:00,,0820.5,5.00,0.00,22.3,21.2,00.0,31.2,24.2,09.0,0001.3,0019.06,0010.03,0009.02
2022-11-13 12:48:00,,0820.4,5.00,0.00,22.3,21.2,00.0,31.2,24.2,09.0,0000.6,0018.61,0010.04,0009.06
2022-11-13 12:49:00,,0820.3,5.00,0.00,22.3,21.2,00.0,31.2,24.2,09.0,0000.2,0018.35,0010.07,0009.06
2022-11-13 12:50:00,,0820.3,5.00,0.00,22.3,21.2,00.0,31.2,24.2,09.0,-000.4,0017.96,0010.04,0009.08
2022-11-13 12:51:00,,0820.3,5.00,0.00,22.3,21.1,00.0,31.2,24.1,09.0,0000.2,0017.15,0010.08,0009.09
2022-11-13 12:52:00,,0820.4,5.00,0.00,22.3,21.1,00.0,31.2,24.1,09.0,0000.7,0017.00,0010.06,0009.08
2022-11-13 12:53:00,,0820.4,5.01,0.00,22.3,21.1,00.0,31.2,24.1,09.0,0000.2,0017.44,0010.03,0009.10
2022-11-13 12:54:00,,0820.3,4.99,0.00,22.3,21.0,00.0,31.2,24.1,09.0,-000.4,0017.70,0010.10,0009.15
2022-11-13 12:55:00,,0820.3,4.99,0.00,22.3,21.0,00.0,31.2,24.1,09.0,-000.6,0018.52,0010.15,0009.20
2022-11-13 12:56:00,,0820.3,5.01,0.00,22.3,21.0,00.0,31.2,24.1,09.0,-000.2,0018.95,0010.17,0009.23
2022-11-13 12:57:00,,0820.2,4.99,0.00,22.3,21.0,00.0,31.2,24.1,09.0,-000.2,0019.10,0010.25,0009.26
2022-11-13 12:58:00,,0820.2,4.99,0.00,22.3,21.0,00.0,31.2,24.1,09.0,0000.1,0019.12,0010.27,0009.27
2022-11-13 12:59:00,,0820.2,5.02,0.00,22.3,21.0,00.0,31.2,24.1,09.0,0002.6,0019.45,0010.33,0009.28
